Location: Columbus
(35.2256°N, 82.1549°W)
Time: 17:49:39
(UTC-05:00)

Envisat - Pass Details

Date: 08 December 2021
Orbit: 764 x 766 km, 98.2° (Epoch: 21 January)

Event Time Altitude Azimuth Distance (km) Brightness Sun altitude
Rises 04:46:37 0° 22° (NNE) 3,235 6.4 -31.6°
Reaches altitude 10° 04:49:07 10° 32° (NNE) 2,305 5.7 -31.1°
Maximum altitude 04:53:45 35° 97° (E) 1,214 4.5 -30.1°
Drops below altitude 10° 04:58:21 10° 163° (SSE) 2,290 5.7 -29.2°
Sets 05:00:50 0° 172° (S) 3,211 6.4 -28.7°
